Theta_e
320 320 320 321 323 324 324 324 325 325 325 325 325 325 324 324 323 323 322 322 321 321 321 320 319 319 319 320 320 320 320 320 320 321 321 320 320 321 320 322 322 320 321 321 323 322 322 322 321 320 321 321 320 320 321 321 321 322 322 321 319 318 318 315 314 313 314 312 314 314 314 315 314 314 313 312 310 310 309 309 310 311 310 311 311
321 321 321 323 323 324 324 325 325 325 324 325 325 324 324 323 322 322 322 321 322 321 321 320 318 318 319 319 318 319 320 320 319 320 320 319 318 320 320 320 320 319 321 321 320 322 321 321 320 319 321 320 320 321 321 321 321 321 320 320 318 318 319 316 313 314 314 312 312 313 313 315 314 313 317 314 311 309 309 309 308 307 308 308 309
321 322 320 320 321 322 323 323 323 323 323 324 324 324 323 322 322 322 321 321 321 321 320 319 318 319 318 317 318 318 319 319 318 319 319 319 319 318 319 319 319 319 320 321 321 321 320 320 319 319 320 319 319 321 320 321 322 321 320 319 319 318 318 317 315 313 313 312 311 312 313 313 315 312 312 312 311 308 309 309 308 307 307 307 307
319 321 321 320 320 320 320 321 322 322 322 322 322 322 322 321 322 321 321 321 320 320 320 319 318 318 317 316 317 317 317 317 317 318 318 318 318 317 316 317 318 319 320 319 320 321 321 319 319 319 319 318 317 318 319 320 321 321 319 318 319 317 318 316 318 314 313 313 309 312 312 313 312 310 311 310 309 307 308 307 305 306 306 305 306
316 319 320 319 318 318 318 320 321 321 321 321 321 322 322 322 322 321 321 320 320 319 319 319 318 318 317 316 316 317 317 317 316 315 315 316 316 315 315 316 316 317 318 318 322 320 320 320 319 319 318 318 316 317 316 318 318 319 320 318 318 318 317 317 316 314 314 314 311 310 311 312 309 309 311 310 307 306 305 306 307 306 306 306 304
314 315 318 317 316 317 318 318 319 319 320 320 321 321 321 321 321 320 320 319 317 319 318 318 318 317 316 316 316 317 316 316 316 315 314 313 313 313 313 313 314 315 316 318 319 319 319 319 319 318 318 319 317 316 314 315 314 316 317 317 317 317 316 315 315 314 315 314 312 308 309 310 307 308 310 311 310 308 307 306 304 304 305 307 306
314 314 317 316 315 316 317 318 318 318 319 320 320 321 321 321 320 320 320 320 318 317 317 318 317 317 316 315 315 315 315 314 313 312 312 311 311 311 311 313 314 315 315 316 316 317 318 318 318 318 319 318 316 314 313 313 313 313 315 316 315 316 314 314 313 313 313 311 309 309 309 308 309 308 306 310 309 309 310 308 307 306 304 305 307
314 315 316 316 314 314 315 316 317 317 318 319 320 320 320 320 320 320 320 320 319 318 317 315 314 314 313 312 312 313 312 311 310 311 311 311 311 311 313 314 313 313 313 313 313 314 314 315 315 316 315 315 315 314 315 313 313 313 312 313 313 313 312 311 311 311 311 311 310 308 307 308 305 305 306 307 307 306 306 308 307 307 306 305 305
314 316 317 317 316 316 316 316 316 317 318 318 319 319 319 319 319 319 319 318 317 317 316 314 312 310 309 309 309 309 310 309 310 311 312 311 312 313 314 314 313 312 312 313 313 314 314 315 316 317 319 316 311 312 313 313 314 313 311 311 311 311 309 310 310 310 309 309 307 305 306 306 305 305 304 305 306 308 307 306 306 306 305 304 305
312 313 314 315 316 317 317 316 317 318 318 318 318 318 318 318 318 318 317 317 315 314 313 312 311 310 308 307 307 307 307 307 305 302 308 313 314 314 314 313 314 314 314 314 314 315 315 316 316 314 312 310 305 300 299 303 308 312 313 312 311 310 309 309 309 309 309 308 308 305 305 305 304 305 306 305 306 305 304 304 304 304 304 304 305
310 311 312 313 314 316 317 317 317 317 316 316 316 317 317 317 317 315 314 314 313 313 311 310 308 308 307 306 305 305 304 304 298 294 298 305 314 314 314 314 315 315 314 314 314 315 316 316 316 316 314 312 306 298 297 297 297 298 300 303 307 312 310 308 308 308 308 309 306 304 307 306 304 304 305 306 305 307 306 304 305 304 304 303 304
308 310 311 312 313 313 314 315 316 316 315 314 315 315 315 315 313 312 312 311 311 310 308 307 306 306 305 305 304 304 303 299 297 297 299 302 307 314 315 315 315 315 315 315 315 315 316 316 317 318 319 317 314 312 307 299 297 297 296 295 294 293 297 309 309 307 308 308 306 306 305 306 306 304 305 304 306 306 306 305 305 304 304 303 303
305 307 309 311 312 312 312 313 314 314 314 314 314 314 313 312 312 311 310 310 309 308 306 306 305 305 305 305 304 304 303 295 297 298 299 300 303 310 315 315 315 315 314 314 314 314 313 312 312 312 312 314 315 314 314 311 302 301 303 303 299 296 292 291 295 309 312 310 309 306 307 307 309 308 307 307 307 307 306 305 304 304 304 303 303
303 304 306 308 310 311 311 312 312 312 313 313 313 312 311 309 309 308 308 307 306 305 304 304 304 304 304 304 303 302 301 296 297 298 300 300 302 307 315 315 314 313 313 313 313 313 313 312 311 309 307 307 307 310 314 313 313 313 313 311 310 307 300 297 297 297 303 310 310 310 309 309 310 309 311 310 312 309 307 306 305 305 304 304 307
301 302 303 305 308 310 311 311 311 312 312 312 311 310 309 308 306 305 305 305 304 303 303 303 303 303 303 303 302 300 300 294 296 298 299 301 302 306 314 314 313 312 312 313 313 313 311 310 309 307 306 304 301 300 312 311 312 312 310 309 309 308 307 307 305 304 306 307 309 310 309 309 309 309 309 310 312 313 313 313 313 312 310 310 311
300 301 301 302 305 308 310 310 310 311 311 310 309 307 306 305 304 304 303 302 303 303 302 302 301 301 301 301 301 300 298 293 294 295 297 299 303 313 313 312 310 309 309 309 309 309 309 308 306 305 304 302 298 293 299 310 314 313 311 310 309 308 307 304 297 297 300 302 305 307 307 306 301 305 304 307 308 308 309 311 312 311 310 310 310
298 299 299 300 302 305 308 310 309 309 308 307 306 304 303 302 302 303 301 301 300 300 300 300 300 300 301 301 300 299 298 295 293 294 296 298 306 312 310 308 307 305 304 305 305 306 305 304 304 303 301 300 294 294 299 306 312 311 310 308 307 307 306 306 301 297 295 294 294 293 293 292 293 293 293 295 303 307 311 310 308 307 307 307 306
298 298 299 299 301 302 305 307 308 308 307 306 304 303 303 302 301 301 300 299 298 298 299 299 299 300 299 299 299 299 297 295 293 296 298 298 303 309 308 305 303 302 301 301 301 301 303 305 304 301 300 298 293 294 298 307 311 310 309 307 306 305 304 304 306 305 299 297 296 294 295 295 294 294 294 295 296 301 312 310 309 307 307 306 306
297 298 298 299 300 301 303 305 307 307 306 305 304 303 302 301 301 300 299 299 298 299 299 297 297 298 298 299 300 298 297 296 293 294 297 299 303 306 304 302 300 300 300 299 300 299 299 298 297 297 297 295 292 293 296 305 308 308 307 305 303 303 302 302 302 303 304 305 305 306 305 302 304 302 300 295 296 301 307 309 307 307 307 306 305
296 297 298 299 299 300 302 303 305 306 305 304 304 303 302 302 301 300 299 299 298 298 297 297 295 295 296 296 296 296 296 295 293 292 294 296 299 306 305 303 300 300 300 299 299 298 298 298 296 290 291 291 291 292 293 296 305 306 306 305 304 302 301 303 302 304 303 301 301 301 302 303 303 301 300 300 300 300 298 301 304 307 305 305 304
296 296 297 297 298 299 300 301 303 304 305 303 302 302 301 300 300 299 298 298 297 297 296 296 295 295 295 295 295 295 296 295 293 291 292 294 295 299 303 302 301 300 299 298 298 297 297 297 296 291 290 290 290 290 292 292 296 302 303 303 301 298 296 303 300 298 300 299 299 298 298 300 299 299 298 298 298 298 298 298 298 300 304 304 303
295 295 295 295 296 297 297 299 301 303 304 303 301 300 300 300 299 298 298 297 296 296 295 295 295 294 294 294 294 294 295 294 294 291 291 291 292 294 300 299 299 300 298 298 297 296 296 296 295 290 289 289 290 290 290 291 292 297 292 289 288 291 299 299 299 299 299 298 298 297 296 296 296 296 296 296 296 296 297 298 298 298 298 299 303
294 294 294 294 295 295 296 297 298 300 301 302 301 300 300 300 299 298 297 296 296 295 295 295 294 294 294 294 294 294 294 294 292 292 290 290 290 290 291 294 293 300 298 296 295 294 295 295 294 289 288 288 288 289 290 290 292 291 289 290 291 292 295 299 298 299 298 297 297 296 295 295 295 294 295 295 295 296 296 297 297 298 298 298 298
293 293 293 293 293 294 294 295 296 297 299 300 300 299 299 299 298 298 297 296 295 294 294 294 294 293 293 293 293 294 294 294 292 291 291 290 290 290 290 290 292 295 296 295 294 294 294 294 291 288 289 289 289 289 288 289 289 288 290 291 291 293 298 298 297 297 296 295 296 295 294 293 294 295 294 294 295 296 296 296 297 298 298 298 297
292 292 291 292 292 293 293 293 294 295 295 296 297 298 297 298 296 297 296 295 295 294 294 294 293 293 293 292 293 293 294 294 293 292 290 290 290 290 290 290 290 290 293 293 293 292 290 290 290 290 290 290 290 291 291 290 289 289 289 291 295 297 298 298 298 298 296 294 294 293 293 292 291 291 293 294 295 296 295 296 297 297 297 298 297
292 291 291 291 291 292 292 291 292 293 294 294 294 295 295 295 295 295 295 294 294 293 293 293 293 292 292 292 292 293 293 293 293 292 292 292 291 290 290 291 292 291 292 291 290 290 290 290 290 291 291 292 294 293 293 293 290 290 291 292 294 295 296 296 296 296 294 293 293 293 291 291 291 292 293 294 295 294 294 295 296 295 296 296 296
291 291 291 291 291 291 291 291 291 291 292 293 293 293 293 293 292 292 293 293 293 292 292 292 292 292 292 292 292 293 292 292 292 292 291 291 291 292 293 293 293 292 294 294 293 293 292 292 291 290 290 290 290 290 291 291 292 293 293 293 293 293 293 294 294 294 292 293 292 291 290 290 290 292 292 293 293 293 294 295 296 294 295 296 295
291 291 291 291 291 291 290 288 290 291 290 290 290 291 292 291 290 290 290 291 292 291 291 291 291 291 291 292 292 292 292 292 291 290 290 291 291 292 291 292 292 292 293 293 293 294 293 291 291 292 292 292 292 292 291 291 290 290 291 291 291 291 291 291 291 290 288 289 289 289 289 290 290 290 291 291 291 292 293 294 294 293 292 294 292
291 291 291 291 290 291 291 290 290 291 290 290 289 289 290 291 291 290 291 290 291 292 292 291 291 291 292 291 290 291 291 290 290 288 288 288 288 291 291 291 291 291 292 290 293 292 291 291 289 290 289 288 288 289 289 290 289 289 289 289 289 290 289 290 290 290 289 290 289 289 288 289 289 289 290 291 290 291 291 292 291 292 292 292 290
291 290 290 290 290 290 290 290 291 291 290 290 290 290 288 289 289 290 289 289 289 288 289 289 290 290 291 291 290 289 289 290 288 288 288 288 288 288 289 289 289 290 290 289 290 289 287 287 287 287 287 288 288 287 287 287 287 288 287 287 287 288 288 287 287 287 286 286 286 287 287 287 288 289 289 289 290 290 289 290 291 291 291 290 290
290 290 290 289 289 289 290 289 289 289 290 290 290 289 290 290 289 288 289 289 289 288 288 288 288 288 289 290 290 288 288 288 288 288 288 288 288 288 288 288 289 289 289 288 287 287 287 287 286 287 287 287 287 286 286 286 286 286 286 286 286 285 286 286 285 284 285 285 285 285 286 287 287 288 288 287 288 289 290 290 290 290 290 290 290
290 289 289 289 289 289 289 289 289 289 288 289 289 289 289 289 290 289 289 289 289 289 288 288 288 288 289 289 289 289 288 288 288 289 289 289 288 288 288 288 288 288 288 289 287 286 286 286 286 286 286 286 285 285 286 286 285 285 285 286 285 285 285 285 284 285 284 285 285 284 285 286 287 286 287 287 287 288 289 288 289 289 289 289 289
289 289 289 289 289 288 288 288 288 288 288 287 287 288 287 287 287 288 289 289 289 289 288 288 288 288 289 289 289 288 288 288 289 289 289 288 288 288 288 288 288 288 289 287 286 285 285 285 285 285 286 285 285 285 285 285 285 285 285 285 285 285 285 285 284 285 284 284 285 284 284 285 286 286 286 287 287 287 287 287 288 289 289 288 287
287 287 288 288 289 288 288 288 288 288 287 287 287 286 285 286 286 285 286 287 288 288 288 288 288 288 288 288 288 288 289 288 289 288 288 288 288 288 288 287 288 287 287 286 286 284 285 285 285 285 285 284 284 284 284 284 284 285 285 285 285 286 286 286 287 285 285 285 285 284 285 286 286 287 287 287 287 288 287 287 287 287 286 286 286
287 286 285 286 287 287 287 287 287 287 288 287 287 287 286 286 286 286 286 286 285 285 285 287 288 288 287 287 288 288 288 288 288 288 288 288 288 288 288 288 286 286 286 286 285 285 285 285 285 285 285 284 283 283 284 285 285 285 285 284 285 286 286 285 285 285 285 286 286 286 285 286 287 287 287 287 287 287 287 287 286 287 287 286 286
286 285 285 285 285 285 285 286 287 288 287 287 286 286 286 286 286 286 285 285 285 285 286 286 287 288 288 288 288 288 288 288 287 287 287 287 287 287 286 285 285 285 285 285 285 284 284 285 285 285 285 285 285 284 284 284 285 284 285 285 284 285 285 285 284 285 284 285 285 285 286 286 286 286 287 287 286 286 286 286 286 285 285 286 285
285 285 285 285 284 285 285 285 285 285 285 286 287 287 287 287 286 286 286 285 284 285 285 285 287 288 288 288 288 287 288 287 287 287 287 287 287 286 286 286 285 285 285 285 285 285 285 284 284 284 284 285 284 285 285 285 285 285 285 285 286 285 285 285 285 284 286 286 285 285 285 285 285 285 286 286 285 285 285 285 284 285 285 284 283
284 284 284 284 285 286 285 285 284 284 285 286 286 286 286 285 285 285 285 284 284 284 285 285 286 285 286 286 290 287 286 287 287 287 286 286 285 285 285 285 285 285 285 285 285 285 284 284 284 284 284 285 285 285 285 285 285 285 284 285 285 285 285 284 283 284 284 285 285 285 285 285 285 285 285 286 285 285 285 284 284 285 284 283 284
284 282 282 282 283 284 284 284 284 285 285 285 284 285 284 284 285 285 285 284 284 284 284 285 285 285 286 285 285 287 287 285 284 283 284 284 285 285 285 285 285 285 284 284 284 284 284 284 284 284 284 284 284 285 285 284 285 284 284 284 284 284 285 285 285 284 285 285 285 285 286 285 285 285 286 286 286 284 284 284 284 283 284 284 284
284 283 283 282 284 284 283 283 284 284 283 284 284 284 284 284 284 283 283 284 284 284 284 284 285 285 285 285 285 286 285 283 283 283 284 284 284 285 285 284 284 284 284 284 284 284 284 284 284 284 284 284 284 284 284 284 283 283 283 284 284 283 282 282 283 284 284 284 284 285 285 285 284 284 285 285 285 284 285 284 284 283 283 284 283
284 284 283 283 283 283 284 284 284 283 284 283 283 283 284 283 283 282 282 282 283 283 284 284 285 285 285 285 285 285 285 285 285 284 284 283 283 284 284 284 284 284 284 283 284 284 284 284 282 282 282 282 282 281 282 282 282 283 284 283 283 283 283 282 282 283 283 283 283 283 283 283 283 285 286 285 284 283 283 283 283 284 283 283 283
285 285 285 284 283 284 284 283 282 282 282 282 284 284 283 282 283 282 282 282 282 282 283 284 285 285 285 286 286 285 285 284 284 284 284 284 284 284 283 284 284 284 284 284 284 283 282 282 280 279 280 281 282 282 283 283 283 283 283 283 283 283 283 282 282 281 281 282 282 282 282 282 282 281 282 284 283 283 284 284 283 283 283 283 283
287 286 285 283 284 283 283 284 283 283 282 283 282 281 281 283 283 283 282 282 282 282 283 283 284 284 284 283 283 283 284 284 283 284 284 283 283 283 283 283 283 283 283 283 283 282 280 279 278 278 278 279 279 279 280 280 280 282 282 283 282 282 282 281 281 280 280 280 281 280 280 281 281 282 283 282 281 282 282 282 283 283 282 281 282
285 285 285 285 285 284 284 284 284 283 282 282 282 281 282 282 283 283 283 283 283 282 283 282 283 283 283 283 283 284 284 284 284 284 283 282 282 281 282 282 282 282 281 281 281 280 279 279 278 278 278 279 279 278 277 276 277 279 281 281 280 279 279 279 279 279 280 279 279 279 280 280 280 281 282 282 281 283 282 282 282 282 283 282 281
285 286 286 285 285 287 287 285 284 283 281 282 283 284 282 284 283 282 282 282 283 283 283 282 282 283 283 284 284 284 284 283 282 282 282 282 282 282 281 281 280 281 280 279 279 280 279 278 277 276 276 277 278 278 277 277 277 276 276 277 278 278 277 277 277 277 278 277 278 278 278 280 281 281 282 282 281 281 282 281 282 281 282 281 283
284 284 284 285 285 286 287 286 284 284 284 284 284 284 284 283 283 283 282 282 282 282 283 283 282 283 283 283 283 283 284 284 283 283 281 281 281 281 280 279 278 279 278 277 277 279 277 277 276 276 275 274 276 277 277 277 277 277 276 276 277 277 277 277 276 276 275 274 276 277 278 279 280 281 281 281 281 281 281 280 281 281 282 282 281
283 284 285 285 286 287 288 287 285 286 286 286 285 286 285 285 284 283 282 283 283 282 284 284 284 284 283 282 282 284 284 284 284 283 283 283 282 281 280 280 280 279 278 278 277 277 277 277 275 275 274 273 274 276 276 276 276 276 276 276 275 275 274 273 273 273 273 273 273 275 276 278 279 279 279 279 281 281 281 281 281 281 281 282 282
284 284 284 286 287 288 287 286 286 286 287 288 288 287 286 284 284 283 283 283 284 284 285 285 285 285 284 284 284 283 283 283 283 283 283 282 282 281 280 280 279 279 278 278 277 277 276 275 275 275 275 274 273 273 274 276 275 275 274 274 273 273 273 273 275 276 275 274 274 275 274 276 278 280 280 279 280 281 282 282 281 281 281 281 282
284 284 285 285 286 286 286 286 286 287 288 287 287 287 287 287 286 284 284 284 284 285 286 286 286 286 285 285 285 285 284 283 283 283 283 283 282 282 281 280 279 278 278 278 277 277 276 275 275 274 274 273 271 271 272 273 273 272 271 270 270 268 270 270 273 275 274 274 274 275 275 276 278 278 278 279 278 279 279 279 279 280 280 280 281
285 285 285 285 285 286 285 285 285 285 286 287 288 287 287 287 287 286 285 285 284 284 285 285 286 286 286 286 285 285 284 284 284 284 284 283 282 282 281 281 280 279 279 279 278 277 276 276 275 274 273 271 271 270 269 269 269 267 267 267 268 269 269 269 270 270 273 273 273 275 277 277 276 277 277 278 278 278 279 280 279 280 280 280 281
284 284 284 284 285 285 284 285 285 285 286 287 288 288 287 287 287 287 286 286 286 286 285 285 285 286 286 286 286 285 285 285 285 285 284 284 283 282 281 281 280 280 279 278 277 277 276 275 275 274 273 272 271 269 267 267 265 265 266 268 269 269 269 269 271 270 270 271 273 275 277 277 278 279 279 278 278 280 279 279 279 279 280 280 280
Wind_Speed
3 3 1 1 0 2 2 2 3 5 4 4 5 5 5 4 4 4 5 6 6 6 6 6 7 7 7 7 7 6 6 5 5 5 5 5 4 5 5 5 6 4 4 3 3 4 5 5 5 4 5 6 4 4 5 5 5 5 5 5 5 5 5 4 3 3 1 1 2 2 3 5 3 3 4 3 2 2 3 3 2 2 2 3 3
6 3 2 1 3 3 5 3 2 0 2 2 4 4 4 4 4 4 5 5 6 6 6 6 6 8 7 7 6 6 6 6 6 6 6 6 5 4 5 6 5 5 5 5 3 3 4 5 4 5 5 6 6 6 6 6 7 7 5 6 5 5 4 3 2 3 4 1 2 2 3 2 3 2 5 5 3 2 2 1 2 2 1 1 1
8 5 2 2 2 2 4 2 2 3 4 3 4 3 2 4 4 4 4 5 4 5 5 4 5 7 8 7 7 6 7 7 6 6 6 7 7 5 5 6 6 6 6 5 4 4 4 4 4 4 4 6 5 5 6 6 6 7 6 5 6 5 5 3 4 3 6 4 2 3 3 3 2 4 3 2 2 2 3 1 1 0 1 1 1
10 8 5 3 2 3 4 3 1 1 3 4 7 7 6 4 3 4 3 3 5 3 4 4 5 6 8 7 7 7 6 6 6 6 7 7 7 7 6 6 6 6 6 6 5 5 5 5 5 5 5 6 5 5 5 5 7 6 6 6 6 6 5 4 3 4 4 5 4 4 3 4 2 2 3 3 3 2 2 1 0 1 1 1 1
10 9 8 6 5 4 2 5 5 5 5 6 6 5 5 6 7 7 6 6 5 4 3 2 5 6 7 7 6 6 6 7 6 6 5 5 7 7 7 6 6 5 5 5 4 5 6 6 6 5 6 6 5 5 5 7 6 6 7 6 6 5 4 5 4 4 5 5 4 1 2 2 1 2 4 4 2 1 1 2 2 2 2 2 1
9 10 8 6 3 1 1 1 3 4 5 6 7 7 6 6 5 5 4 2 3 2 2 3 4 6 7 7 6 6 6 6 6 7 6 6 5 5 5 5 5 5 5 5 5 5 6 6 6 7 6 7 6 5 4 5 5 6 6 5 5 5 5 4 3 3 4 3 5 4 2 4 2 2 3 3 4 3 2 2 1 1 2 3 2
9 8 8 6 3 2 2 4 3 4 4 5 5 5 6 7 7 6 5 5 6 3 1 2 1 5 5 6 6 6 6 5 5 5 5 5 5 6 6 6 6 5 5 5 5 4 4 6 7 6 6 5 6 6 5 5 4 5 5 5 5 6 5 5 4 3 4 4 1 1 3 1 1 3 2 3 3 3 4 2 4 2 2 3 4
9 8 7 5 4 4 2 2 3 3 3 4 5 4 4 5 6 5 4 4 6 7 2 2 3 5 5 5 5 4 5 5 5 5 5 5 6 6 6 7 7 6 6 5 5 5 5 5 4 3 3 3 5 6 6 5 3 3 2 5 5 6 5 5 5 4 4 4 2 3 2 2 2 2 2 3 2 2 3 4 6 5 3 3 4
9 8 7 8 8 5 3 1 1 2 3 4 5 6 5 5 5 3 6 5 3 1 4 4 7 7 6 6 6 5 5 5 4 5 6 6 5 7 7 7 8 8 7 7 6 7 6 6 5 4 5 7 8 5 4 3 4 5 3 4 5 6 5 5 5 4 3 4 3 2 3 3 3 4 4 5 6 4 3 4 5 3 2 3 3
9 9 9 8 7 6 5 2 2 3 3 5 5 6 6 5 7 5 3 6 4 4 4 5 6 7 7 6 5 5 4 3 3 2 3 7 7 7 6 6 8 9 9 9 8 8 7 7 7 11 9 10 11 10 10 8 8 5 4 3 5 6 6 6 5 5 5 5 5 5 5 5 5 6 6 4 2 3 3 4 5 3 2 4 5
10 10 10 9 8 6 5 4 2 2 2 2 4 5 6 5 4 6 5 5 6 5 4 7 7 6 6 6 6 5 3 2 3 3 6 10 9 8 8 7 7 8 8 10 9 8 6 6 4 6 7 7 8 10 10 11 12 12 12 10 6 3 5 5 5 5 5 5 3 4 5 5 5 5 6 4 3 5 5 4 3 1 2 3 6
10 10 10 10 9 8 7 4 3 1 3 4 3 4 4 6 6 7 6 6 5 4 6 7 7 6 5 6 6 4 3 6 3 6 9 10 10 9 8 7 7 7 8 9 7 7 7 7 5 5 7 7 6 7 9 10 11 12 13 13 13 11 7 3 4 2 4 4 4 4 3 4 2 4 3 3 4 3 2 3 4 4 3 4 3
10 11 10 10 10 8 7 6 4 4 4 2 2 5 5 6 6 7 7 5 5 6 6 7 7 6 6 7 6 5 5 8 3 9 12 13 14 12 7 8 9 8 8 8 7 6 7 7 6 5 5 9 6 5 5 7 8 11 12 12 13 12 11 10 7 2 4 3 4 3 3 2 2 2 2 2 1 3 3 3 3 3 3 3 5
10 10 11 11 10 10 8 8 7 5 4 4 5 6 7 8 8 7 6 7 6 7 7 9 7 8 7 7 6 7 7 9 5 8 13 14 15 12 9 9 9 8 7 7 7 7 7 7 6 5 5 6 5 5 4 5 5 7 8 7 6 8 10 11 10 10 6 4 5 4 1 2 3 1 1 2 2 1 1 2 2 3 3 5 4
11 11 11 11 11 10 10 8 7 7 6 6 7 7 8 8 10 8 7 7 6 6 8 8 8 7 8 7 6 8 8 11 10 8 8 14 15 12 9 9 9 9 8 8 7 6 5 5 7 7 4 4 3 3 3 5 6 6 7 6 7 7 8 8 7 5 5 4 4 5 3 2 3 3 1 1 3 3 3 1 2 2 2 1 2
12 11 12 12 11 11 10 9 9 8 7 7 8 8 8 9 10 8 9 8 5 7 8 8 8 8 7 8 8 9 9 13 11 11 10 7 10 9 8 9 9 8 8 8 7 7 7 7 7 6 6 5 4 2 1 1 6 8 8 6 6 6 6 5 4 3 3 3 3 3 2 2 1 4 4 4 3 2 2 2 3 2 2 2 2
12 12 12 12 11 11 10 9 9 9 9 9 9 8 8 10 9 7 10 8 7 7 10 8 6 6 7 7 9 8 9 12 12 11 11 12 6 7 9 8 7 8 6 5 6 5 6 6 5 6 6 6 5 6 6 6 6 7 6 6 5 6 5 5 5 7 7 5 5 4 4 4 5 5 4 3 3 3 5 4 3 1 4 2 2
10 10 11 10 10 10 10 10 9 10 10 9 8 8 6 7 10 9 11 9 8 6 10 8 8 8 8 9 7 9 8 11 13 12 14 15 10 6 5 6 8 7 6 6 6 7 8 12 8 6 6 5 6 9 7 7 7 6 6 6 5 6 6 6 4 5 7 6 9 7 8 8 8 9 8 7 5 2 2 3 3 2 2 2 1
11 10 10 9 9 10 10 10 9 9 11 10 8 8 8 7 7 10 10 11 6 7 9 9 8 8 8 8 12 11 9 11 15 12 13 13 10 7 8 8 8 6 6 7 6 5 5 9 13 9 7 6 11 10 10 7 7 5 6 7 6 6 3 4 5 5 5 6 7 7 9 9 7 6 7 10 10 7 4 3 4 2 3 2 1
9 8 9 9 9 10 10 10 10 10 10 10 9 8 7 7 7 8 9 8 6 8 9 9 11 9 8 10 11 11 11 11 13 15 13 12 9 7 5 8 7 7 6 4 5 5 5 5 8 9 8 10 11 12 11 9 7 4 5 6 6 5 2 4 4 3 5 6 6 6 6 5 6 6 6 6 7 7 6 4 2 1 3 3 2
8 9 9 11 11 12 10 10 11 10 9 9 9 9 8 8 7 6 8 10 8 10 11 9 10 10 9 9 10 11 10 9 12 15 14 14 13 9 7 8 7 6 6 5 4 4 5 5 5 7 9 10 11 11 11 11 8 6 5 5 3 2 0 3 5 6 6 6 5 5 5 5 6 6 6 6 6 5 5 5 5 5 3 3 4
8 9 11 11 10 11 11 10 10 10 9 9 9 10 9 9 8 7 6 7 11 11 9 8 9 9 8 9 10 9 11 14 9 14 15 15 15 13 8 6 5 6 7 5 5 4 4 4 4 5 8 9 10 11 11 10 9 7 5 4 4 4 5 5 5 6 6 6 6 6 6 5 5 5 5 6 6 5 5 5 6 6 6 5 3
8 10 11 12 11 12 12 13 10 9 10 9 10 10 8 9 9 9 8 8 11 11 8 7 8 8 8 8 8 8 8 9 14 11 14 14 14 13 12 9 10 6 7 6 4 3 3 4 5 7 8 9 9 10 9 9 10 7 7 8 8 8 6 6 7 8 7 7 7 6 5 5 5 5 5 5 5 5 5 5 6 5 7 7 8
8 10 10 10 11 11 10 11 10 10 10 9 9 10 10 10 10 9 8 8 8 9 7 7 8 9 8 8 7 7 6 6 10 12 11 13 12 13 13 13 11 7 6 4 3 4 4 4 4 6 9 10 12 11 10 10 8 8 10 9 9 7 6 7 8 7 7 7 7 6 6 4 4 4 4 3 3 3 4 5 5 5 6 6 6
10 10 10 10 10 9 10 10 10 10 10 10 10 9 9 9 9 7 8 8 8 8 8 7 8 7 7 7 6 6 6 6 6 9 11 13 14 14 13 12 8 6 6 4 5 4 6 9 10 10 9 9 10 10 10 11 11 11 11 10 8 6 7 7 6 7 8 7 5 5 4 4 2 2 2 2 2 2 2 4 4 5 4 5 7
10 9 9 9 9 8 9 9 10 11 11 10 10 8 8 8 8 7 8 8 8 8 7 7 7 7 6 5 5 4 5 5 6 6 7 8 9 12 12 13 14 14 12 9 10 10 10 11 11 11 9 7 7 7 7 7 11 12 12 10 7 6 5 6 6 8 7 5 5 5 3 3 3 3 3 4 6 6 4 3 5 6 5 4 6
9 9 8 8 8 9 10 8 8 8 10 9 8 7 8 7 8 8 7 7 7 7 7 6 6 6 6 5 5 5 6 6 6 6 6 5 5 5 6 7 7 8 8 7 7 7 9 8 8 9 9 11 10 8 8 7 8 8 7 7 7 6 6 6 5 6 5 5 5 4 3 3 3 5 6 6 6 5 4 2 3 3 3 2 4
8 8 8 7 7 7 8 9 9 8 9 8 9 9 8 8 9 9 8 6 6 7 6 7 6 5 4 3 3 4 4 5 6 6 5 3 4 4 4 5 5 5 7 6 5 5 6 5 7 6 6 6 6 6 7 7 6 6 6 6 6 6 7 8 9 6 4 3 3 3 4 4 5 4 4 5 5 5 5 4 3 4 4 2 4
8 8 7 7 7 7 7 7 7 7 8 10 8 7 7 7 7 8 7 5 5 4 6 5 4 4 3 3 4 4 4 5 4 3 1 2 3 5 5 4 4 5 5 6 6 5 6 7 7 7 6 5 5 6 6 7 5 5 6 6 6 6 6 5 6 5 3 2 5 5 5 5 5 4 5 6 6 5 4 4 4 4 4 5 5
7 7 6 6 6 6 6 6 6 7 7 7 8 9 10 11 8 7 6 9 12 10 6 4 2 3 4 4 3 2 3 4 6 6 7 8 9 9 8 7 7 7 8 9 6 6 6 6 5 4 4 4 5 4 4 3 4 5 5 4 4 5 5 5 4 3 4 5 4 4 5 4 5 4 5 5 4 5 5 6 4 4 5 5 5
6 6 6 6 6 5 5 5 5 6 6 6 6 6 6 8 11 12 11 10 11 11 11 10 10 9 6 3 3 4 5 4 4 7 8 9 9 10 9 8 7 5 2 4 7 5 5 6 4 4 4 5 4 4 3 4 4 3 3 3 4 4 4 4 3 2 3 4 4 4 3 5 5 5 6 5 5 4 4 4 4 5 5 3 4
5 5 4 4 5 5 5 5 5 5 5 5 5 5 6 6 6 8 11 12 13 14 13 13 12 11 11 8 5 4 7 8 10 8 8 10 10 10 10 10 9 8 5 7 7 5 3 4 4 4 4 5 4 3 3 3 3 3 1 4 4 4 4 4 2 3 4 5 5 4 4 5 4 4 3 2 3 5 4 3 4 4 3 3 3
5 4 4 4 4 5 5 5 5 4 4 5 5 5 5 5 6 5 6 8 11 13 14 14 12 12 12 12 12 9 9 9 11 11 10 10 10 11 12 12 10 7 9 9 6 5 4 4 5 4 4 4 4 4 4 5 4 4 4 3 3 4 4 3 1 5 4 4 4 4 3 3 3 3 3 3 3 3 2 2 3 3 4 4 3
5 5 4 4 5 4 4 4 4 4 4 4 4 5 4 4 4 4 5 6 7 7 10 13 13 11 12 13 12 12 12 11 11 10 9 8 8 9 11 10 14 14 10 6 5 5 4 5 4 4 4 4 4 3 4 5 4 4 4 5 5 4 4 2 4 5 4 5 5 3 2 2 2 3 3 3 2 2 3 3 2 3 3 3 2
6 7 8 6 5 5 4 4 4 4 4 4 5 5 5 5 5 5 5 5 5 5 5 6 8 11 8 8 10 11 11 11 10 9 8 7 8 8 7 7 7 5 7 5 5 5 4 4 4 4 4 5 4 5 5 5 5 5 4 3 3 3 4 5 6 6 5 3 3 3 3 3 3 3 3 3 3 3 2 2 2 3 2 2 2
6 6 6 6 6 5 5 5 4 4 4 4 4 5 5 5 6 5 4 4 4 4 4 4 3 4 9 10 11 10 11 11 11 11 11 10 7 4 4 5 4 4 5 5 6 5 5 5 5 4 4 4 4 4 4 4 4 4 4 4 3 4 5 5 4 4 2 3 3 2 2 3 3 2 2 3 3 2 2 2 2 1 1 1 1
5 6 6 5 4 4 4 4 5 5 4 3 4 4 4 4 4 4 4 4 4 3 3 3 4 4 5 6 6 8 10 10 11 11 11 10 10 7 5 4 4 4 5 4 4 5 5 5 4 4 4 4 4 4 4 4 4 5 5 5 5 5 4 3 2 2 3 3 3 4 4 3 3 3 2 3 2 2 2 2 1 1 1 2 1
5 4 4 3 4 4 5 5 5 5 5 5 4 5 5 5 5 5 5 4 4 3 4 3 3 4 4 5 6 4 4 5 8 9 8 8 7 6 4 4 5 5 5 4 4 5 5 4 4 4 3 3 4 3 4 4 4 3 4 5 4 3 3 4 4 5 5 4 4 4 3 3 2 2 2 2 2 2 2 2 1 2 2 2 2
5 5 6 6 5 5 4 4 5 5 5 5 5 5 5 5 5 5 5 3 3 3 4 4 4 4 4 4 4 4 5 7 6 5 5 5 4 4 4 4 5 4 4 4 3 4 4 4 3 3 3 3 3 3 4 4 4 4 3 3 3 3 4 3 4 4 4 4 3 2 2 2 1 1 0 1 1 1 2 2 2 2 3 3 2
5 4 5 6 5 5 4 4 4 5 4 4 4 4 5 5 4 3 4 3 3 3 2 3 4 4 4 3 4 4 6 4 4 3 4 4 4 4 5 3 3 3 3 3 3 3 4 4 4 4 4 4 4 4 4 3 2 2 2 2 3 4 3 3 3 3 3 2 2 2 2 1 0 1 1 1 1 0 2 3 2 2 2 2 2
4 4 4 4 4 4 5 5 4 3 3 2 1 3 4 3 2 2 2 3 2 2 3 4 3 4 4 4 5 5 5 4 4 4 3 3 3 2 3 2 1 3 3 2 3 3 4 4 3 3 3 4 3 3 2 2 2 2 3 3 3 3 2 3 3 3 3 3 2 1 1 1 0 0 2 1 0 1 1 2 2 2 2 2 2
4 4 4 4 4 5 5 4 3 3 2 0 1 1 4 4 2 1 3 2 3 3 2 4 3 3 5 8 6 5 5 3 3 4 2 2 2 2 1 2 2 2 1 1 2 3 3 4 3 3 3 2 2 2 2 2 2 2 2 2 3 2 2 2 2 2 2 1 1 1 1 0 0 1 1 0 1 1 2 2 2 2 2 2 2
4 4 3 3 4 5 4 1 1 3 2 4 4 4 4 2 1 0 0 1 3 3 2 2 2 3 4 4 5 4 4 3 2 2 2 1 1 0 0 1 1 2 2 2 1 2 2 3 2 2 2 2 2 2 2 2 2 1 2 2 2 2 2 1 1 1 1 1 1 1 1 2 1 1 1 2 1 2 2 2 2 2 2 2 2
4 3 4 4 3 4 3 2 3 3 2 2 3 3 1 3 3 1 1 0 1 2 1 1 0 1 1 3 3 3 3 3 2 1 1 1 0 0 0 1 1 1 1 1 1 2 2 3 2 1 2 1 1 1 1 1 1 1 1 2 2 2 1 1 1 1 0 1 1 1 2 2 2 2 2 2 2 3 2 2 2 2 2 1 1
5 5 5 4 3 2 2 1 0 2 3 4 4 5 2 1 1 3 1 0 1 0 1 0 3 1 2 1 1 1 1 2 1 1 0 0 0 0 1 1 1 1 1 1 1 1 2 2 2 2 1 0 1 1 1 1 1 1 1 2 4 4 3 2 1 1 1 1 1 2 2 3 2 2 2 2 2 3 3 2 1 2 2 1 1
4 4 4 3 4 3 4 3 2 2 2 2 2 4 5 3 1 2 2 2 2 2 2 1 1 2 3 2 1 2 1 2 1 2 1 1 1 1 0 0 0 0 0 0 0 1 1 2 2 2 3 2 1 0 1 1 1 1 1 1 1 2 2 2 2 2 2 2 1 1 2 1 2 1 2 2 2 2 2 2 2 2 2 1 1
4 4 3 3 4 2 3 3 2 2 2 2 2 4 4 4 2 2 3 3 3 3 4 3 3 3 3 3 2 2 2 2 2 2 3 4 2 1 1 0 0 0 0 0 1 1 2 2 2 2 3 2 2 2 1 0 1 0 0 0 1 1 2 1 2 2 2 2 1 1 1 1 2 1 1 1 2 2 3 2 2 2 1 1 1
4 4 4 4 4 5 4 2 2 3 4 4 4 4 4 4 5 3 2 3 3 3 3 4 4 4 4 5 4 3 3 2 3 3 2 2 2 2 2 1 1 1 1 1 1 1 1 2 2 2 3 3 3 2 1 1 0 0 0 0 0 1 2 2 2 2 2 2 2 1 1 1 1 0 1 2 2 1 2 2 1 1 1 1 0
2 3 4 4 4 4 4 4 4 3 4 4 5 5 5 4 4 5 4 4 4 4 4 5 5 4 4 5 5 4 4 4 3 4 3 3 2 2 2 2 2 2 2 2 2 2 2 2 2 3 3 3 3 3 2 2 2 1 1 1 1 3 2 1 1 0 0 1 1 2 1 1 1 1 1 2 2 1 2 1 1 0 1 1 1
0 0 1 2 4 4 3 3 3 2 2 1 2 3 4 4 4 5 5 5 4 5 4 5 5 5 5 5 5 5 5 5 4 4 3 3 3 3 3 3 3 3 3 3 3 3 2 3 3 3 3 3 3 3 3 2 2 1 1 1 3 2 1 2 1 2 1 1 1 2 2 2 2 2 1 2 2 2 2 1 1 1 1 1 1
1 1 1 2 3 4 4 2 3 3 3 4 4 4 4 4 4 4 4 5 5 6 6 5 5 5 6 6 6 5 6 6 6 5 5 4 3 3 3 3 4 4 4 3 3 3 3 3 3 3 3 3 4 3 3 3 3 2 2 4 3 1 2 3 2 3 3 1 1 2 2 2 2 2 2 1 1 2 1 1 1 1 0 0 1
Wind_Direction
350 8 348 108 169 205 158 184 232 216 189 149 141 143 146 152 162 164 140 153 154 157 155 150 149 147 144 149 152 155 151 143 138 135 134 136 140 140 145 150 151 146 136 135 132 148 157 163 157 129 148 137 146 140 142 143 131 148 160 143 159 154 165 127 130 124 79 352 134 150 141 139 118 130 129 116 110 82 68 62 55 67 99 119 126
343 3 353 235 232 189 141 129 188 67 29 94 121 125 133 138 151 142 160 163 163 163 156 157 148 142 137 139 142 144 147 150 149 144 141 138 140 146 146 145 137 146 149 149 154 147 145 144 128 130 150 137 150 156 150 147 154 157 166 170 170 172 178 123 152 140 167 165 100 80 140 180 122 161 169 167 156 114 116 87 55 49 71 39 119
327 324 274 242 181 87 137 161 186 144 128 79 60 63 56 116 130 154 166 165 171 161 154 155 147 138 129 134 140 143 150 153 157 152 153 151 149 151 152 150 149 149 159 166 163 138 127 127 138 142 141 136 158 152 152 156 156 165 167 168 178 183 190 172 135 142 157 191 142 152 176 175 155 172 172 162 121 134 146 146 135 112 73 124 196
324 323 319 354 18 89 92 77 92 124 109 117 133 146 137 128 125 137 151 166 160 154 153 157 154 142 131 131 137 138 141 148 153 158 156 154 153 154 155 157 158 161 161 164 157 161 146 132 163 159 150 136 149 154 173 156 163 169 168 178 176 182 187 195 176 138 166 152 202 178 175 167 183 123 130 118 132 146 162 151 141 225 247 215 214
328 327 323 332 2 14 71 131 143 127 132 132 138 149 157 146 146 156 167 166 161 148 136 188 161 147 137 137 137 147 156 152 147 145 151 158 154 153 160 168 168 151 149 155 156 150 153 155 165 155 148 144 160 167 166 177 168 167 180 175 183 174 172 187 184 150 147 170 142 178 137 157 109 121 157 154 133 125 109 192 212 224 248 257 263
329 326 323 313 319 72 102 139 146 153 152 149 151 157 154 143 146 134 119 95 45 65 112 215 181 147 138 141 151 157 154 158 159 158 155 147 146 144 135 117 111 118 123 122 130 136 155 157 159 158 162 164 177 168 167 184 174 176 182 181 175 164 169 179 177 147 141 135 149 139 178 166 154 118 180 172 158 175 215 232 284 224 229 265 237
327 326 323 310 296 279 179 167 177 176 169 159 154 159 157 148 144 140 138 131 104 39 339 223 271 127 126 128 141 150 149 144 143 141 140 142 140 129 115 104 101 104 101 108 107 114 139 158 166 159 174 171 152 168 165 166 189 208 191 162 165 150 160 166 161 151 140 132 98 134 143 156 135 164 148 168 158 178 191 205 255 203 202 211 249
333 333 328 308 307 288 262 234 199 188 172 160 156 152 147 143 134 124 123 138 150 145 182 185 89 81 87 93 90 112 124 115 113 114 114 129 124 112 118 118 110 95 86 81 78 87 85 80 86 129 120 141 143 151 140 141 124 125 121 147 149 148 154 153 157 156 154 147 141 156 137 142 112 47 98 138 163 230 204 191 226 220 209 212 217
343 348 353 346 339 318 303 294 205 186 166 150 142 144 141 120 111 116 127 87 21 66 133 167 112 93 75 79 80 81 95 97 101 124 124 107 111 119 123 124 121 110 97 82 70 76 71 79 74 82 88 78 74 79 85 98 139 127 139 134 136 138 136 142 149 149 142 139 133 109 126 150 172 149 160 185 203 202 165 180 245 233 219 256 235
354 358 1 349 341 339 321 301 226 192 171 152 145 137 131 128 130 112 83 107 132 132 133 102 94 101 101 84 78 78 78 85 66 97 138 135 124 116 112 119 119 117 109 98 86 81 76 70 72 74 72 72 67 65 63 61 54 65 108 116 133 132 139 141 153 165 149 171 183 155 163 192 189 195 192 203 120 122 126 159 218 223 176 253 261
1 1 358 349 344 351 352 322 286 190 189 120 107 110 114 115 121 107 99 107 126 125 130 101 94 93 97 103 89 67 39 34 3 181 141 133 124 123 121 112 108 108 106 108 106 95 85 80 84 81 82 87 87 82 81 77 81 83 77 75 66 95 137 129 160 162 169 187 155 172 195 207 215 193 206 177 191 186 193 177 210 161 232 304 290
6 3 359 358 358 1 360 347 338 11 45 66 89 81 88 103 99 90 90 97 94 99 87 89 85 74 79 71 68 58 50 8 358 149 128 123 120 117 114 112 106 98 103 101 104 106 102 83 59 53 58 61 63 67 62 62 72 80 84 79 71 60 53 123 140 130 170 152 175 201 165 220 236 195 210 171 217 211 194 184 183 199 209 232 257
8 8 1 3 1 359 14 6 7 26 52 41 54 79 70 68 71 85 92 79 76 75 83 81 75 64 65 67 57 45 40 11 75 126 120 117 117 113 102 111 107 102 98 94 98 99 94 84 70 47 37 42 53 55 71 60 53 57 61 68 70 76 72 56 38 62 138 107 155 168 202 189 185 234 218 252 159 167 156 191 193 189 202 224 236
12 8 6 3 4 7 8 17 10 25 46 56 58 64 72 68 64 58 62 68 74 95 74 73 65 65 61 62 57 41 36 15 56 117 123 121 117 109 112 104 99 95 94 97 106 112 117 118 105 71 37 37 37 38 73 85 83 63 51 50 50 45 51 55 61 56 56 91 105 89 154 159 77 8 357 169 64 59 170 227 162 184 179 222 223
12 8 10 4 5 11 14 15 20 22 35 69 78 72 69 70 69 61 59 67 58 60 78 75 69 66 60 60 63 48 35 23 52 60 104 122 113 110 108 101 98 94 87 87 93 98 93 99 104 106 93 71 37 356 89 97 93 84 75 68 61 53 46 32 22 24 49 73 95 129 124 129 131 140 135 100 142 158 187 169 179 186 203 230 286
13 8 10 7 6 6 14 22 25 27 43 51 64 71 72 78 78 74 74 60 42 80 65 70 70 69 64 68 72 53 34 29 39 46 37 31 103 108 106 102 103 98 92 94 95 96 106 109 107 112 115 89 41 63 120 151 105 99 96 89 73 64 57 56 58 37 37 34 36 47 73 59 85 121 141 154 151 153 83 76 52 73 88 20 317
15 8 10 7 7 7 11 22 32 34 33 45 52 59 76 79 76 76 73 64 50 49 74 61 58 62 62 60 72 65 46 24 38 46 43 37 30 88 102 97 94 89 79 71 72 77 81 90 102 109 87 67 15 52 92 111 87 94 94 81 67 59 40 25 48 45 46 53 40 47 66 71 72 87 98 77 103 121 123 85 62 55 85 66 316
13 11 8 2 7 10 13 20 32 42 46 46 51 53 47 77 82 78 79 71 63 44 67 57 50 57 62 60 57 71 49 23 26 50 62 56 59 54 58 85 90 86 79 63 68 62 55 60 62 68 72 64 47 63 60 86 93 100 106 96 72 53 28 11 22 39 52 56 44 55 60 66 76 66 47 35 30 329 112 114 179 118 103 120 297
14 10 3 1 11 14 16 23 30 44 53 50 46 57 54 60 86 91 94 89 68 76 68 61 45 44 47 58 57 63 54 33 23 30 67 84 85 81 73 58 47 46 64 70 63 70 58 48 52 59 74 63 59 57 54 72 86 84 98 91 81 66 20 12 24 31 38 46 32 32 36 38 50 52 44 40 32 23 18 107 151 130 131 151 170
5 9 12 14 18 21 19 25 31 38 54 54 47 47 46 50 39 82 85 79 82 73 70 68 60 37 30 46 42 44 50 38 24 28 40 43 63 89 95 105 105 88 61 45 61 46 44 47 52 47 58 66 64 60 55 61 92 83 94 100 100 76 5 48 44 63 70 68 61 50 47 41 52 43 32 29 30 27 18 360 3 78 117 121 132
14 22 24 24 24 26 20 27 35 39 41 57 55 44 41 43 37 26 78 88 70 70 69 66 64 55 37 37 51 44 45 48 33 28 38 48 49 62 63 79 94 91 84 65 44 44 39 37 53 42 58 63 66 65 66 60 64 74 69 83 67 117 87 96 56 61 71 66 63 54 48 47 51 48 43 33 28 17 17 13 27 12 45 91 107
19 32 35 31 26 26 22 24 38 41 41 46 57 56 43 45 37 40 30 72 84 70 65 65 70 62 50 40 45 43 41 44 47 35 35 46 51 53 76 68 68 105 92 75 58 41 18 28 48 38 51 62 68 71 70 72 72 84 64 83 100 102 95 80 73 65 62 57 57 48 38 35 39 42 41 40 30 27 25 31 37 43 47 39 32
24 37 39 38 33 30 28 29 32 41 45 45 53 56 47 45 42 34 42 47 69 71 59 56 67 67 57 44 39 37 33 40 39 44 40 43 47 58 61 62 59 69 91 92 75 77 33 51 63 64 60 54 57 64 72 78 76 63 76 92 104 100 93 69 70 68 61 55 57 55 36 29 37 42 39 38 32 34 40 41 45 46 56 56 51
34 42 40 37 38 34 25 32 30 36 39 42 55 59 53 50 45 41 39 46 57 64 53 50 55 56 55 46 36 29 25 37 43 45 46 48 52 56 61 64 67 74 79 88 87 80 72 60 75 68 68 79 80 74 65 63 71 65 65 69 74 75 79 81 71 76 80 65 61 52 42 31 28 37 24 5 12 23 47 46 45 41 57 64 60
41 42 44 40 39 40 43 38 37 35 40 40 42 45 50 51 57 40 47 51 53 58 51 46 53 51 50 47 32 25 17 23 42 41 47 52 52 53 58 67 76 95 90 71 70 76 97 100 90 83 81 80 78 76 68 63 66 68 64 63 69 60 64 66 72 69 63 61 62 57 43 36 40 8 329 330 334 24 32 37 44 41 39 61 67
44 41 44 48 41 35 48 41 39 42 44 46 48 39 46 48 59 51 50 49 49 55 51 50 48 46 47 39 34 23 18 24 27 30 34 41 49 54 64 68 75 78 86 90 90 87 84 82 80 74 67 63 62 57 63 61 62 61 57 57 63 61 60 76 75 76 75 73 60 57 32 2 18 359 2 19 45 21 2 26 38 31 22 35 53
50 43 41 47 48 49 52 47 51 44 45 48 47 42 45 49 50 48 48 50 50 48 44 46 48 43 37 20 19 15 21 20 16 20 21 35 45 40 53 67 73 82 79 74 74 72 66 67 78 80 83 75 74 74 69 58 54 49 48 50 53 55 60 61 70 85 87 79 67 55 29 8 353 18 26 34 37 19 4 26 65 35 23 32 68
52 45 42 46 47 49 57 50 54 55 49 48 48 42 42 48 54 47 38 31 47 45 42 37 31 30 27 7 7 30 17 27 22 8 1 22 56 53 56 58 60 77 88 79 76 71 78 72 62 50 54 55 53 50 50 53 56 50 51 53 54 57 60 69 69 66 62 69 77 66 36 30 46 31 39 48 41 20 5 26 38 42 23 23 51
58 52 47 48 44 44 55 58 59 62 62 59 55 50 44 43 60 65 45 34 44 66 70 55 33 1 350 350 360 17 30 25 8 315 319 0 47 85 90 87 87 82 81 91 94 69 64 56 50 47 44 58 53 50 39 48 49 50 44 36 40 49 51 53 62 54 50 79 70 63 60 52 51 34 47 55 39 28 2 47 33 56 37 58 71
52 46 44 49 45 45 42 44 50 60 66 70 73 66 52 57 52 63 54 38 51 50 61 60 351 322 351 13 32 12 315 312 322 10 42 53 62 69 75 75 76 86 76 65 73 78 65 74 56 59 52 54 57 44 35 30 43 39 37 33 39 46 51 56 61 58 60 63 63 61 51 57 57 42 54 58 44 38 32 44 39 33 63 44 56
57 44 42 40 32 41 51 53 42 51 56 69 71 76 71 48 51 58 62 60 56 51 52 51 45 42 41 351 349 29 327 290 81 77 68 67 64 64 64 67 65 68 38 82 50 57 69 74 57 53 52 57 59 45 33 44 38 49 43 49 49 47 55 59 37 48 62 73 63 67 69 68 66 50 54 40 45 37 38 34 51 47 59 51 55
67 50 46 38 35 38 40 42 47 60 55 55 61 72 68 69 45 38 48 53 50 47 42 38 37 39 41 41 37 10 35 71 83 76 75 73 72 69 65 62 61 65 67 96 81 51 50 77 67 53 46 61 46 41 44 49 45 49 36 58 46 36 45 49 15 58 72 68 69 62 57 57 59 56 61 54 61 53 42 38 32 40 41 53 50
57 48 45 44 48 43 46 47 40 41 51 56 55 57 69 69 64 36 11 25 47 52 42 34 31 36 40 41 48 64 70 71 70 67 66 70 72 73 68 56 46 42 71 63 93 77 63 68 77 66 58 65 47 56 59 59 60 57 54 62 55 41 53 48 28 68 68 75 78 66 59 71 84 79 64 56 58 61 43 47 37 55 43 35 29
46 42 39 39 52 42 36 41 55 56 48 57 59 64 57 62 68 55 38 16 8 17 30 28 24 26 35 41 47 52 59 65 68 68 66 65 67 67 76 69 61 49 68 96 77 87 76 82 75 72 70 68 60 60 63 58 56 63 65 68 71 62 49 42 70 63 65 52 60 65 69 64 59 79 78 72 66 68 57 44 34 38 38 37 27
47 43 39 45 58 51 36 34 42 50 53 55 61 65 59 49 55 50 53 53 48 37 9 3 17 32 37 34 44 49 48 48 49 47 38 30 37 41 57 57 45 35 39 42 65 70 76 75 77 62 59 57 47 56 59 57 62 64 69 72 70 72 65 57 55 53 58 69 73 67 65 75 70 63 63 63 55 49 42 39 36 36 39 32 29
53 52 43 41 45 44 37 34 34 46 52 49 56 65 57 50 48 49 48 54 53 43 25 13 355 17 46 49 46 54 55 53 48 42 34 22 15 56 65 70 62 53 66 57 69 68 67 64 67 62 58 59 56 58 59 65 66 70 72 81 77 70 64 62 62 68 73 75 79 90 86 64 58 72 76 66 60 57 42 32 30 31 53 54 54
54 50 46 41 51 59 52 47 42 49 59 63 68 73 61 52 48 49 48 48 42 31 26 352 359 8 27 30 33 49 55 60 56 51 44 41 43 61 79 81 93 85 71 68 61 70 65 53 60 64 63 66 62 62 65 65 65 71 71 72 66 63 62 70 75 79 74 69 56 52 52 52 43 40 56 71 43 38 37 33 32 30 37 38 69
62 57 49 43 56 52 55 46 33 45 51 56 54 68 59 49 45 41 43 35 31 30 20 3 22 46 32 353 5 17 15 26 38 41 30 32 37 44 54 62 58 79 80 69 65 73 73 61 60 68 66 71 70 66 71 71 67 46 51 53 58 73 79 79 65 62 61 63 55 48 55 54 55 60 61 66 47 25 28 33 37 49 54 52 55
63 55 52 47 48 54 53 48 33 46 42 45 43 54 57 50 37 35 27 21 23 25 358 9 26 28 8 341 358 342 28 30 34 31 25 33 40 42 50 56 69 76 71 68 59 70 71 66 62 69 70 72 74 68 68 65 57 52 58 75 75 62 55 51 55 48 52 54 56 48 54 53 46 53 73 92 50 41 56 63 54 57 67 61 54
60 56 58 68 65 56 62 64 59 49 27 42 34 44 59 53 49 41 20 26 17 14 31 27 12 353 339 8 3 14 70 56 52 46 51 42 41 30 36 46 53 69 78 75 73 82 80 72 69 69 63 58 55 51 41 44 53 63 73 70 75 66 55 59 59 62 63 59 64 57 59 57 81 162 128 65 64 57 77 77 74 73 73 82 68
69 55 52 53 80 74 58 56 58 76 98 98 87 91 103 100 59 52 32 24 18 18 35 45 12 348 352 38 46 58 96 94 75 64 52 58 47 49 44 53 75 80 79 83 80 72 79 75 60 58 50 45 41 44 40 48 55 55 61 65 72 73 64 55 49 54 52 50 44 40 28 334 297 57 69 48 349 93 91 108 93 82 76 71 63
69 58 56 56 62 77 74 50 25 359 353 19 115 161 133 132 102 44 43 15 19 19 35 42 31 7 41 53 55 66 83 75 88 88 72 50 46 25 16 26 27 52 71 76 75 80 70 61 53 53 59 43 36 42 49 56 50 61 61 66 75 76 67 55 50 45 45 56 30 352 320 317 254 152 156 153 83 87 93 73 73 74 64 59 52
82 86 64 25 60 75 96 108 102 68 42 13 336 351 29 47 39 338 46 324 12 34 5 41 36 30 47 42 61 68 74 74 84 94 104 97 25 11 354 9 19 15 26 37 36 64 84 88 73 53 56 46 28 7 26 35 53 82 93 91 92 88 89 73 61 50 28 3 1 318 322 331 7 45 45 52 66 74 67 79 80 68 66 60 57
57 62 82 93 94 98 82 83 27 17 5 329 314 317 77 107 113 68 254 251 33 61 39 328 323 54 36 38 58 65 91 96 78 45 62 20 22 335 327 342 3 23 33 48 55 71 86 93 91 68 59 54 65 61 54 49 17 80 142 122 95 92 90 106 113 116 54 315 274 303 356 21 42 53 47 36 56 74 65 59 63 61 60 53 58
41 27 34 43 16 42 59 70 23 360 353 8 349 336 20 115 123 137 153 216 216 58 100 26 310 296 153 101 61 108 113 128 127 127 61 81 319 306 326 347 359 15 20 49 61 78 91 104 119 125 107 46 57 66 65 73 72 93 87 106 123 139 176 183 199 212 237 240 249 245 318 359 40 48 59 56 57 81 71 64 78 106 85 46 36
71 61 36 27 37 15 6 16 350 11 345 350 320 313 325 310 203 127 162 220 240 237 241 201 191 251 269 249 200 160 239 225 215 172 190 239 228 253 286 307 322 30 32 10 61 106 136 154 151 155 158 168 160 128 114 111 119 124 131 137 143 147 172 202 215 225 223 212 217 210 250 16 40 49 64 88 80 73 91 89 79 68 76 69 60
43 54 45 23 10 21 38 2 330 294 248 238 257 295 317 320 353 134 186 204 216 240 260 256 249 249 226 216 225 239 215 209 216 207 210 213 201 196 188 176 64 71 93 108 131 159 174 173 165 158 162 169 171 169 165 151 144 136 138 173 171 231 233 229 220 222 218 208 172 164 111 85 58 56 70 91 90 87 87 72 68 72 56 26 30
51 27 22 10 14 10 358 360 14 2 356 357 339 323 303 298 303 273 213 220 219 229 241 252 247 243 242 237 215 207 218 256 255 250 232 215 207 187 179 181 195 195 138 158 197 184 186 178 175 170 173 175 177 182 177 167 153 141 128 151 265 231 273 265 226 233 213 195 176 158 141 109 100 89 89 97 106 118 101 90 84 68 44 24 2
70 44 14 5 359 340 328 328 343 359 8 2 342 325 315 312 293 294 276 252 241 227 221 231 238 235 230 238 229 214 192 190 225 238 238 234 213 197 186 186 191 186 185 207 205 202 199 190 189 195 190 181 181 177 174 159 164 179 215 235 234 255 251 288 237 275 252 177 153 134 119 119 111 115 111 110 106 99 100 94 73 62 48 41 19
116 102 8 323 321 310 305 284 280 285 307 325 294 305 308 302 306 296 288 280 273 261 242 228 232 232 228 231 225 217 198 200 207 214 217 227 227 212 193 186 189 198 202 211 208 202 196 195 196 197 190 181 176 179 173 171 187 211 225 247 280 292 6 17 27 19 16 146 138 146 132 118 104 89 88 104 114 110 94 83 59 58 60 52 51
176 183 219 258 299 322 328 317 306 303 301 328 350 333 324 314 299 289 283 276 269 267 261 238 221 225 229 226 216 205 208 213 210 199 194 199 202 203 207 203 201 203 209 213 215 208 206 200 201 200 195 183 184 188 187 188 187 200 261 291 295 335 19 23 17 8 22 52 132 133 146 151 139 117 102 101 100 91 88 97 85 82 70 67 71